User: anonymous   Login
Location: Unspecified
(0.0000°N, 0.0000°E)
Time: 01:50:42
(UTC+00:00)
Language:

Hubble Space Telescope - Orbit

View from above orbital plane
View from above orbital plane
View from above satellite
View from above satellite

Ground track
Ground track

The orbit data is extracted from the following two-line orbital elements,

1 20580U 90037B   19290.83192774  .00000409  00000-0  13921-4 0  9999
2 20580  28.4686 130.8714 0002659 352.4037 111.8962 15.09282282419204
Epoch (UTC): 17 October 2019 19:57:58
Eccentricity: 0.0002659
inclination: 28.4686°
perigee height: 536 km
apogee height: 540 km
right ascension of ascending node: 130.8714°
argument of perigee: 352.4037°
revolutions per day: 15.09282282
mean anomaly at epoch: 111.8962°
orbit number at epoch: 41920

The dashed part of the orbit path shows where the satellite is in the earth's shadow,  

DLR